Weather Roundup
Issued by NWS Chicago, IL

Home | Current Version | Previous Version | Text Only | Print | Product List | Glossary Off
Versions: 1 2 3 4 5 6 7 8 9 10 11 12 13 14 15 16 17 18 19 20 21 22 23 24 25 26 27 28 29 30 31 32 33 34 35 36 37 38 39 40 41 42 43 44 45 46 47 48 49 50

000
NZUS59 KLOT 232204
HRRLOT

CHICAGO AREA WEATHER ROUNDUP
NATIONAL WEATHER SERVICE CHICAGO/ROMEOVILLE IL
500 PM CDT FRI JUN 23 2017

NOTE: "FAIR" INDICATES FEW OR NO CLOUDS BELOW 12,000 FEET WITH NO
SIGNIFICANT WEATHER AND/OR OBSTRUCTIONS TO VISIBILITY.

* THESE STATIONS ARE NOT UNDER NWS QUALITY CONTROL. THEY ALSO MAY NOT
  REPORT WEATHER SUCH AS PRECIPITATION OR FOG.

ILZ005-006-012>014-019>023-232300-
NORTHEAST ILLINOIS

CITY           SKY/WX    TMP DP  RH WIND       PRES   REMARKS
OHARE          PTSUNNY   82  49  31 NW14G21   29.70F HX  81
MIDWAY         PTSUNNY   82  48  30 W17G25    29.71S HX  81
AURORA         PTSUNNY   79  57  46 W14       29.74S HX  80
LANSING*       MOSUNNY   80  48  31 W7        29.72R HX  80
JOLIET*        MOSUNNY   82  51  33 NW7       29.73F HX  81
WAUKEGAN       CLOUDY    78  52  40 VRB6      29.70S
DUPAGE AIRPORT MOSUNNY   79  54  41 W13G21    29.72F
WHEELING       MOSUNNY   81  50  33 W10G18    29.72S HX  80
MORRIS*        MOSUNNY   81  52  37 W10G22    29.73S HX  80
LEWIS AIRPORT* MOSUNNY   81  48  30 NW18      29.73F HX  80
NORTHERLY ISL    N/A     74  60  61 SE3         N/A
$$

WIZ051-052-058>065-066-070>072-232300-
SOUTHEAST WISCONSIN

CITY           SKY/WX    TMP DP  RH WIND       PRES   REMARKS
MILWAUKEE      PTSUNNY   81  50  33 W15       29.68S HX  80
KENOSHA*       MOSUNNY   78  54  43 W13       29.70S
RACINE*        CLOUDY    79  48  33 W10       29.71R
WAUKESHA       PTSUNNY   77  52  41 W13G26    29.71R
$$

INZ001>003-010>013-019-020-232300-
NORTHWEST INDIANA

CITY           SKY/WX    TMP DP  RH WIND       PRES   REMARKS
GARY*          MOSUNNY   79  43  27 CALM      29.73S
MICHIGAN CITY* NOT AVBL
RENSSELAER*    NOT AVBL
VALPARAISO     CLOUDY    80  51  36 N9        29.73F HX  80
$$

LMZ740>746-232300-
SOUTHERN LAKE MICHIGAN

STATION/POSITION TIME  SKY/WX   TEMP WIND        PRES    VSBY
                                AIR  DIR/SP/G
                 (UTC)          (F)  (DEG/KT/KT) (MB)    (MI)
HARRISON CRIB    2140            72  180/ 10/ 11   N/A
BURNHAM HARBOR   2200            71                N/A
CALUMET HARBOR   2130            74  110/  6/  7 1006.1R
BURNS HARBOR     2140            74   70/  5/  6 1007.1S
MICHIGAN CITY    2140            70   30/  3/  3   N/A
$$

ABBREVIATIONS USED IN REMARKS
   TC - TEMPERATURE IN CELSIUS
  WCI - WIND CHILL INDEX
   HX - HEAT INDEX
  VSB - VISIBILITY
$$



USA.gov is the U.S. government's official web portal to all federal, state and local government web resources and services.